Weather History for KCLL - October, 2014

Change the Weather History Date:

Thursday, October 23, 2014

  Actual Average Record
Temperature  
Mean Temperature 72 °F 69 °F  
Max Temperature 80 °F 79 °F 91 °F (1988)
Min Temperature 63 °F 58 °F 38 °F (1937)
Degree Days  
Heating Degree Days 0 2  
Month to date heating degree days 1 14  
Since 1 July heating degree days 1 16  
Cooling Degree Days 7 5  
Month to date cooling degree days 190 178  
Year to date cooling degree days 2870 2974  
Growing Degree Days 22 (Base 50)    
Moisture  
Dew Point 55 °F    
Average Humidity 58    
Maximum Humidity 73    
Minimum Humidity 42    
Precipitation  
Precipitation T in 0.17 in 1.96 in (1953)
Month to date precipitation 1.81 3.71  
Year to date precipitation 31.15 32.41  
Sea Level Pressure  
Sea Level Pressure 30.10 in    
Wind  
Wind Speed 5 mph (ENE)    
Max Wind Speed 10 mph    
Max Gust Speed 13 mph    
Visibility 10 miles    
Events Rain    
T = Trace of Precipitation, MM = Missing Value Source: NWS Daily Summary

Daily Weather History Graph

Daily Weather History Graph

Search for Another Location

Airport or City:

Trip Planner

Search our weather history database for the weather conditions in past years. The results will help you decide how hot, cold, wet, or windy it might be!

Date:

Astronomy

Oct. 23, 2014 Rise Set
Actual Time 7:33 AM CDT 6:45 PM CDT
Civil Twilight 7:08 AM CDT 7:10 PM CDT
Nautical Twilight 6:40 AM CDT 7:38 PM CDT
Astronomical Twilight 6:12 AM CDT 8:06 PM CDT
Moon 7:15 AM CDT (10/23) 6:48 PM CDT (10/23)
Length of Visible Light 12h 01m
Length of Day
11h 12m
Waning Crescent, 0% of the Moon is Illuminated
Oct 23
Waning Crescent
Oct 23
New
Oct 30
First Quarter
Nov 6
Full
Nov 14
Last Quarter

Hourly Weather History & Observations

Time (CDT) Temp. Heat Index Dew Point Humidity Pressure Visibility Wind Dir Wind Speed Gust Speed Precip Events Conditions
12:53 AM 66.9 °F - 57.9 °F 73% 30.08 in 10.0 mi East 4.6 mph - N/A   Clear
1:53 AM 66.2 °F - 57.2 °F 73% 30.09 in 10.0 mi East 6.9 mph - N/A   Clear
3:53 AM 66.0 °F - 57.0 °F 73% 30.08 in 10.0 mi ENE 3.5 mph - N/A   Scattered Clouds
4:53 AM 64.9 °F - 55.9 °F 73% 30.07 in 10.0 mi ENE 5.8 mph - 0.00 in Rain Light Rain
5:53 AM 64.0 °F - 55.9 °F 75% 30.06 in 10.0 mi East 9.2 mph - 0.00 in Rain Light Rain
6:53 AM 64.9 °F - 55.9 °F 73% 30.10 in 10.0 mi NE 3.5 mph - 0.00 in Rain Light Rain
7:53 AM 64.0 °F - 55.0 °F 73% 30.12 in 10.0 mi NE 4.6 mph - 0.00 in Rain Light Rain
8:53 AM 64.9 °F - 54.0 °F 68% 30.14 in 10.0 mi ENE 4.6 mph - 0.00 in   Clear
9:53 AM 66.9 °F - 53.1 °F 61% 30.14 in 10.0 mi East 5.8 mph - 0.00 in   Partly Cloudy
10:53 AM 69.1 °F - 53.1 °F 57% 30.15 in 10.0 mi SE 4.6 mph - 0.00 in   Scattered Clouds
11:53 AM 73.9 °F - 54.0 °F 50% 30.15 in 10.0 mi WNW 3.5 mph - N/A   Clear
12:53 PM 77.0 °F - 55.9 °F 48% 30.13 in 10.0 mi Variable 3.5 mph - N/A   Clear
1:53 PM 75.9 °F - 55.0 °F 48% 30.10 in 10.0 mi Calm Calm - N/A   Clear
2:53 PM 79.0 °F - 55.0 °F 44% 30.08 in 10.0 mi NNE 5.8 mph - N/A   Partly Cloudy
3:53 PM 80.1 °F 80.1 °F 55.0 °F 42% 30.06 in 10.0 mi Variable 4.6 mph - N/A   Mostly Cloudy
4:53 PM 79.0 °F - 54.0 °F 42% 30.06 in 10.0 mi NE 8.1 mph - N/A   Clear
5:53 PM 75.9 °F - 54.0 °F 46% 30.06 in 10.0 mi NE 5.8 mph - N/A   Clear
6:53 PM 73.0 °F - 55.0 °F 53% 30.06 in 10.0 mi East 4.6 mph - N/A   Clear
7:53 PM 71.1 °F - 55.0 °F 57% 30.09 in 10.0 mi ENE 5.8 mph - N/A   Clear
8:53 PM 69.1 °F - 55.0 °F 61% 30.09 in 10.0 mi ENE 4.6 mph - N/A   Clear
9:53 PM 66.9 °F - 55.0 °F 66% 30.10 in 10.0 mi East 3.5 mph - N/A   Clear
10:53 PM 66.0 °F - 54.0 °F 65% 30.11 in 10.0 mi East 6.9 mph - N/A   Clear
11:53 PM 64.0 °F - 54.0 °F 70% 30.10 in 10.0 mi East 5.8 mph - N/A   Clear